This demonstration page uses our WeatherBlox Daily Observations layout. Learn more.

41.55636, -103.73856

Hourly Observations for June 10, 2017

Temp ( °F °C ) Dew Point ( °F °C ) Humidity (%) Winds ( mph kmh ) Pressure ( in mb ) Visibility ( mi km ) Precip ( " mm )
12:53 am 00:53 Clear 76 24.4 44 6.7 32 32 SW 16 26 29.36 994 10 16.0934 0 0
1:53 am 01:53 Clear 71 21.7 43 6.1 36 36 SSW 7 11 29.37 995 10 16.0934 0 0
2:53 am 02:53 Clear 62 16.7 45 7.2 54 54 E 6 9 29.38 995 10 16.0934 0 0
3:53 am 03:53 Clear 59 15 44 6.7 58 58 NNE 10 17 29.38 995 10 16.0934 0 0
4:25 am 04:25 Clear 67 19.4 40 4.4 37 37 WNW 14 22 29.38 995 10 16.0934 0 0
4:53 am 04:53 Clear 62 16.7 45 7.2 54 54 NW 9 15 29.47 998 10 16.0934 0 0
5:53 am 05:53 Sunny 59 15 46 7.8 62 62 WNW 13 20 29.55 1001 10 16.0934 0 0
6:53 am 06:53 Sunny 59 15 46 7.8 62 62 WNW 15 24 29.6 1002 10 16.0934 0 0
7:53 am 07:53 Sunny 62 16.7 47 8.3 58 58 NW 16 26 29.6 1003 10 16.0934 0 0
8:53 am 08:53 Sunny 67 19.4 47 8.3 49 49 WNW 9 15 29.62 1003 10 16.0934 0 0
9:53 am 09:53 Sunny 70 21.1 48 8.9 46 46 W 10 17 29.62 1003 10 16.0934 0 0
10:53 am 10:53 Sunny 74 23.3 48 8.9 40 40 W 9 15 29.6 1002 10 16.0934 0 0
11:53 am 11:53 Sunny 76 24.4 47 8.3 36 36 Calm 29.57 1001 10 16.0934 0 0
12:53 pm 12:53 Sunny 81 27.2 48 8.9 32 32 undefined N/A 29.55 1001 10 16.0934 0 0
1:53 pm 13:53 Sunny 80 26.7 51 10.6 37 37 SSE 13 20 29.54 1001 10 16.0934 0 0
2:53 pm 14:53 Sunny 83 28.3 51 10.6 33 33 SSE 18 30 29.54 1000 10 16.0934 0 0
3:53 pm 15:53 Sunny 83 28.3 50 10 32 32 SSE 15 24 29.54 1000 10 16.0934 0 0
4:53 pm 16:53 Sunny 85 29.4 48 8.9 28 28 ESE 18 30 29.49 999 10 16.0934 0 0
5:53 pm 17:53 Sunny 83 28.3 49 9.4 31 31 ESE 17 28 29.49 999 10 16.0934 0 0
6:53 pm 18:53 Sunny 83 28.3 50 10 32 32 SE 17 28 29.47 998 10 16.0934 0 0
7:53 pm 19:53 Sunny 80 26.7 50 10 35 35 ESE 14 22 29.46 998 10 16.0934 0 0
8:53 pm 20:53 Clear 74 23.3 50 10 43 43 ESE 8 13 29.46 998 10 16.0934 0 0
9:53 pm 21:53 Clear 70 21.1 51 10.6 51 51 ENE 8 13 29.47 998 10 16.0934 0 0
10:53 pm 22:53 Clear 68 20 52 11.1 57 57 ENE 8 13 29.46 998 10 16.0934 0 0
11:53 pm 23:53 Clear 67 19.4 53 11.7 61 61 ENE 6 9 29.43 997 10 16.0934 0 0

Powered by AerisWeather